Flag for Micronesia Weather past 2 weeks in Colonia, Yap, Micronesia

Now
80 °F

Cloudy.


Feels Like: 86 °F
Forecast: 75 / 90 °F
Wind: 12 mph from Northeast

Location: Yap Island


UV Index: 3 (Moderate)

Visibility: 12 mi


Pressure: 29.78 "Hg

Humidity: 90%

Dew point: 77 °F

Location of ColoniaLocation

Historic Weather in Colonia

°F

Colonia temperature yesterday

Maximum temperature yesterday: 96 °F (at 12:51 PM)
Minimum temperature yesterday: 79 °F (at 1:52 AM)
Average temperature yesterday: 85 °F

Past Weeks' High & Low Weather Summary

 TemperatureHumidityPressure
High96 °F (Apr 18, 12:51 PM)94% (Apr 13, 5:52 AM)29.87 "Hg (Apr 13, 5:52 AM)
Low75 °F (Apr 11, 12:50 PM)54% (Apr 18, 12:51 PM)29.71 "Hg (Apr 11, 4:50 PM)
Average83 °F81%29.80 "Hg
* Reported Apr 4 7:51 AM — Apr 19 7:51 AM, Colonia, Weather by CustomWeather, © 2014

Note: Actual official high and low records may vary slightly from our data, if they occured in-between our weather recording intervals... More about our weather records

Advertising

Historic Weather Conditions — Data for Previous 24 hours

 ConditionsComfort  
Time TempWeatherWind HumidityBarometerVisibility
7:51 AM
Apr 19
80 °FCloudy.12 mph90%29.78 "Hg12 mi
5:51 AM81 °FOvercast.10 mph85%29.75 "Hg12 mi
4:50 AM82 °FOvercast.6 mph83%29.74 "Hg12 mi
3:50 AM82 °FOvercast.5 mph82%29.75 "Hg12 mi
2:51 AM80 °FOvercast.5 mph80%29.76 "Hg12 mi
1:55 AM82 °FOvercast.5 mph80%29.78 "Hg12 mi
12:50 AM82 °FOvercast.3 mph79%29.80 "Hg12 mi
11:50 PM
Apr 18
81 °FMostly cloudy.3 mph77%29.80 "Hg12 mi
10:54 PM82 °FOvercast.3 mph75%29.80 "Hg12 mi
9:50 PM82 °FPartly cloudy.3 mph74%29.81 "Hg12 mi
8:51 PM83 °FPartly cloudy.3 mph74%29.80 "Hg12 mi
7:57 PM83 °FPassing clouds.3 mph74%29.78 "Hg12 mi
6:53 PM86 °FBroken clouds.3 mph71%29.77 "Hg12 mi
5:50 PM89 °FBroken clouds.5 mph66%29.76 "Hg12 mi
4:53 PM89 °FBroken clouds.6 mph68%29.75 "Hg12 mi
3:53 PM90 °FBroken clouds.8 mph64%29.75 "Hg12 mi
2:52 PM93 °FPartly sunny.No wind60%29.76 "Hg12 mi
1:51 PM92 °FScattered clouds.3 mph58%29.78 "Hg12 mi
12:51 PM96 °FScattered clouds.2 mph54%29.80 "Hg12 mi
11:53 AM90 °FScattered clouds.No wind64%29.81 "Hg12 mi
9:50 AM92 °FScattered clouds.3 mph65%29.83 "Hg12 mi
8:51 AM88 °FScattered clouds.6 mph72%29.83 "Hg12 mi
Weather by CustomWeather, © 2014

See weather overview